Time,TemperatureF,DewpointF,PressureIn,WindDirection,WindDirectionDegrees,WindSpeedMPH,WindSpeedGustMPH,Humidity,HourlyPrecipIn,Conditions,Clouds,dailyrainin,SoftwareType,DateUTC
2013-09-23 00:00:00,49.4,46.0,30.11,East,101,0.0,0.0,88,0.00,,,0.00,Wunderground v.1.15,2013-09-23 05:00:00,
2013-09-23 00:05:00,49.2,45.8,30.11,East,101,0.0,0.0,88,0.00,,,0.00,Wunderground v.1.15,2013-09-23 05:05:00,
2013-09-23 00:15:00,49.1,45.7,30.11,East,101,0.0,0.0,88,0.00,,,0.00,Wunderground v.1.15,2013-09-23 05:15:00,
2013-09-23 00:25:00,48.8,45.4,30.11,East,101,0.0,0.0,88,0.00,,,0.00,Wunderground v.1.15,2013-09-23 05:25:00,
2013-09-23 00:30:00,48.7,45.3,30.11,East,101,0.0,0.0,88,0.00,,,0.00,Wunderground v.1.15,2013-09-23 05:30:00,
2013-09-23 00:40:00,48.5,45.4,30.11,East,101,0.0,0.0,89,0.00,,,0.00,Wunderground v.1.15,2013-09-23 05:40:00,
2013-09-23 00:45:00,48.5,45.4,30.11,East,101,0.0,0.0,89,0.00,,,0.00,Wunderground v.1.15,2013-09-23 05:45:00,
2013-09-23 00:50:00,48.4,45.3,30.11,East,101,0.0,0.0,89,0.00,,,0.00,Wunderground v.1.15,2013-09-23 05:50:00,
2013-09-23 00:55:00,48.3,45.2,30.11,East,101,0.0,0.0,89,0.00,,,0.00,Wunderground v.1.15,2013-09-23 05:55:00,
2013-09-23 01:00:00,48.2,45.1,30.12,East,101,0.0,0.0,89,0.00,,,0.00,Wunderground v.1.15,2013-09-23 06:00:00,
2013-09-23 01:05:00,48.1,45.0,30.12,East,101,0.0,0.0,89,0.00,,,0.00,Wunderground v.1.15,2013-09-23 06:05:00,
2013-09-23 01:15:00,47.9,44.8,30.12,East,101,0.0,0.0,89,0.00,,,0.00,Wunderground v.1.15,2013-09-23 06:15:00,
2013-09-23 01:25:00,47.6,44.5,30.12,East,101,0.0,0.0,89,0.00,,,0.00,Wunderground v.1.15,2013-09-23 06:25:00,
2013-09-23 01:30:00,47.4,44.3,30.12,East,101,0.0,0.0,89,0.00,,,0.00,Wunderground v.1.15,2013-09-23 06:30:00,
2013-09-23 01:35:00,47.3,44.2,30.12,East,101,0.0,0.0,89,0.00,,,0.00,Wunderground v.1.15,2013-09-23 06:35:00,
2013-09-23 01:40:00,47.1,44.0,30.12,East,101,0.0,0.0,89,0.00,,,0.00,Wunderground v.1.15,2013-09-23 06:40:00,
2013-09-23 01:45:00,47.0,43.9,30.12,East,101,0.0,0.0,89,0.00,,,0.00,Wunderground v.1.15,2013-09-23 06:45:00,
2013-09-23 01:50:00,46.9,44.1,30.12,East,101,0.0,0.0,90,0.00,,,0.00,Wunderground v.1.15,2013-09-23 06:50:00,
2013-09-23 02:00:00,46.8,44.0,30.12,East,101,0.0,0.0,90,0.00,,,0.00,Wunderground v.1.15,2013-09-23 07:00:00,
2013-09-23 02:05:00,46.6,43.8,30.11,East,101,0.0,0.0,90,0.00,,,0.00,Wunderground v.1.15,2013-09-23 07:05:00,
2013-09-23 02:15:00,46.3,43.5,30.12,East,101,0.0,0.0,90,0.00,,,0.00,Wunderground v.1.15,2013-09-23 07:15:00,
2013-09-23 02:20:00,46.2,43.4,30.11,East,101,0.0,0.0,90,0.00,,,0.00,Wunderground v.1.15,2013-09-23 07:20:00,
2013-09-23 02:25:00,46.1,43.3,30.11,East,101,0.0,0.0,90,0.00,,,0.00,Wunderground v.1.15,2013-09-23 07:25:00,
2013-09-23 02:30:00,46.0,43.2,30.11,East,101,0.0,0.0,90,0.00,,,0.00,Wunderground v.1.15,2013-09-23 07:30:00,
2013-09-23 02:35:00,45.9,43.1,30.11,East,101,0.0,0.0,90,0.00,,,0.00,Wunderground v.1.15,2013-09-23 07:35:00,
2013-09-23 02:45:00,45.8,43.0,30.11,East,101,0.0,0.0,90,0.00,,,0.00,Wunderground v.1.15,2013-09-23 07:45:00,
2013-09-23 02:50:00,45.7,42.9,30.11,East,101,0.0,0.0,90,0.00,,,0.00,Wunderground v.1.15,2013-09-23 07:50:00,
2013-09-23 02:55:00,45.6,42.8,30.11,East,101,0.0,0.0,90,0.00,,,0.00,Wunderground v.1.15,2013-09-23 07:55:00,
2013-09-23 03:00:00,45.6,42.8,30.11,East,101,0.0,0.0,90,0.00,,,0.00,Wunderground v.1.15,2013-09-23 08:00:00,
2013-09-23 03:05:00,45.5,42.7,30.11,East,101,0.0,0.0,90,0.00,,,0.00,Wunderground v.1.15,2013-09-23 08:05:00,
2013-09-23 03:15:00,45.3,42.8,30.11,East,101,0.0,0.0,91,0.00,,,0.00,Wunderground v.1.15,2013-09-23 08:15:00,
2013-09-23 03:20:00,45.2,42.7,30.11,East,101,0.0,0.0,91,0.00,,,0.00,Wunderground v.1.15,2013-09-23 08:20:00,
2013-09-23 03:30:00,45.0,42.2,30.12,East,101,0.0,0.0,90,0.00,,,0.00,Wunderground v.1.15,2013-09-23 08:30:00,
2013-09-23 03:35:00,45.0,42.5,30.12,East,101,0.0,0.0,91,0.00,,,0.00,Wunderground v.1.15,2013-09-23 08:35:00,
2013-09-23 03:40:00,45.0,42.5,30.12,East,101,0.0,0.0,91,0.00,,,0.00,Wunderground v.1.15,2013-09-23 08:40:00,
2013-09-23 03:45:00,45.0,42.5,30.12,East,101,0.0,0.0,91,0.00,,,0.00,Wunderground v.1.15,2013-09-23 08:45:00,
2013-09-23 03:55:00,44.9,42.4,30.13,East,101,0.0,0.0,91,0.00,,,0.00,Wunderground v.1.15,2013-09-23 08:55:00,
2013-09-23 04:00:00,44.8,42.3,30.13,East,101,0.0,0.0,91,0.00,,,0.00,Wunderground v.1.15,2013-09-23 09:00:00,
2013-09-23 04:05:00,44.8,42.3,30.13,East,101,0.0,0.0,91,0.00,,,0.00,Wunderground v.1.15,2013-09-23 09:05:00,
2013-09-23 04:15:00,44.7,42.2,30.12,East,101,0.0,0.0,91,0.00,,,0.00,Wunderground v.1.15,2013-09-23 09:15:00,
2013-09-23 04:20:00,44.7,42.2,30.12,East,101,0.0,0.0,91,0.00,,,0.00,Wunderground v.1.15,2013-09-23 09:20:00,
2013-09-23 04:25:00,44.5,42.0,30.12,East,101,0.0,0.0,91,0.00,,,0.00,Wunderground v.1.15,2013-09-23 09:25:00,
2013-09-23 04:30:00,44.5,42.0,30.12,East,101,0.0,0.0,91,0.00,,,0.00,Wunderground v.1.15,2013-09-23 09:30:00,
2013-09-23 04:35:00,44.5,42.0,30.12,East,101,0.0,0.0,91,0.00,,,0.00,Wunderground v.1.15,2013-09-23 09:35:00,
2013-09-23 04:40:00,44.5,42.0,30.12,East,101,0.0,0.0,91,0.00,,,0.00,Wunderground v.1.15,2013-09-23 09:40:00,
2013-09-23 04:45:00,44.4,41.9,30.12,East,101,0.0,0.0,91,0.00,,,0.00,Wunderground v.1.15,2013-09-23 09:45:00,
2013-09-23 04:55:00,44.2,41.7,30.12,East,101,0.0,0.0,91,0.00,,,0.00,Wunderground v.1.15,2013-09-23 09:55:00,
2013-09-23 05:00:00,44.1,41.6,30.13,East,101,0.0,0.0,91,0.00,,,0.00,Wunderground v.1.15,2013-09-23 10:00:00,
2013-09-23 05:05:00,44.1,41.6,30.13,East,101,0.0,0.0,91,0.00,,,0.00,Wunderground v.1.15,2013-09-23 10:05:00,
2013-09-23 05:15:00,43.9,41.4,30.13,East,101,0.0,0.0,91,0.00,,,0.00,Wunderground v.1.15,2013-09-23 10:15:00,
2013-09-23 05:20:00,43.8,41.3,30.13,East,101,0.0,0.0,91,0.00,,,0.00,Wunderground v.1.15,2013-09-23 10:20:00,
2013-09-23 05:30:00,43.7,41.2,30.13,East,101,0.0,0.0,91,0.00,,,0.00,Wunderground v.1.15,2013-09-23 10:30:00,
2013-09-23 05:35:00,43.7,41.2,30.13,East,101,0.0,0.0,91,0.00,,,0.00,Wunderground v.1.15,2013-09-23 10:35:00,
2013-09-23 05:40:00,43.6,41.1,30.13,East,101,0.0,0.0,91,0.00,,,0.00,Wunderground v.1.15,2013-09-23 10:40:00,
2013-09-23 05:50:00,43.7,41.2,30.13,East,101,0.0,0.0,91,0.00,,,0.00,Wunderground v.1.15,2013-09-23 10:50:00,
2013-09-23 05:55:00,43.7,41.5,30.13,East,101,0.0,0.0,92,0.00,,,0.00,Wunderground v.1.15,2013-09-23 10:55:00,
2013-09-23 06:00:00,43.6,41.4,30.13,East,101,0.0,0.0,92,0.00,,,0.00,Wunderground v.1.15,2013-09-23 11:00:00,
2013-09-23 06:05:00,43.6,41.4,30.14,East,101,0.0,0.0,92,0.00,,,0.00,Wunderground v.1.15,2013-09-23 11:05:00,
2013-09-23 06:15:00,43.6,41.1,30.14,East,101,0.0,0.0,91,0.00,,,0.00,Wunderground v.1.15,2013-09-23 11:15:00,
2013-09-23 06:20:00,43.6,41.1,30.14,East,101,0.0,0.0,91,0.00,,,0.00,Wunderground v.1.15,2013-09-23 11:20:00,
2013-09-23 06:25:00,43.6,41.4,30.14,East,101,0.0,0.0,92,0.00,,,0.00,Wunderground v.1.15,2013-09-23 11:25:00,
2013-09-23 06:35:00,43.7,41.5,30.14,East,101,0.0,0.0,92,0.00,,,0.00,Wunderground v.1.15,2013-09-23 11:35:00,
2013-09-23 06:45:00,43.7,41.5,30.14,East,101,0.0,0.0,92,0.00,,,0.00,Wunderground v.1.15,2013-09-23 11:45:00,
2013-09-23 06:50:00,43.6,41.4,30.14,East,101,0.0,0.0,92,0.00,,,0.00,Wunderground v.1.15,2013-09-23 11:50:00,
2013-09-23 07:00:00,43.6,41.4,30.14,East,101,0.0,0.0,92,0.00,,,0.00,Wunderground v.1.15,2013-09-23 12:00:00,
2013-09-23 07:05:00,43.6,41.4,30.14,East,101,0.0,0.0,92,0.00,,,0.00,Wunderground v.1.15,2013-09-23 12:05:00,
2013-09-23 07:15:00,43.6,41.4,30.14,East,101,0.0,0.0,92,0.00,,,0.00,Wunderground v.1.15,2013-09-23 12:15:00,
2013-09-23 07:20:00,43.6,41.4,30.14,East,101,0.0,0.0,92,0.00,,,0.00,Wunderground v.1.15,2013-09-23 12:20:00,
2013-09-23 07:25:00,43.6,41.4,30.15,East,101,0.0,0.0,92,0.00,,,0.00,Wunderground v.1.15,2013-09-23 12:25:00,
2013-09-23 07:30:00,43.7,41.5,30.15,East,101,0.0,0.0,92,0.00,,,0.00,Wunderground v.1.15,2013-09-23 12:30:00,
2013-09-23 07:35:00,43.8,41.6,30.15,ESE,102,0.0,0.0,92,0.00,,,0.00,Wunderground v.1.15,2013-09-23 12:35:00,
2013-09-23 07:40:00,44.1,41.9,30.15,ESE,102,0.0,0.0,92,0.00,,,0.00,Wunderground v.1.15,2013-09-23 12:40:00,
2013-09-23 07:45:00,44.3,42.1,30.15,ESE,102,0.0,0.0,92,0.00,,,0.00,Wunderground v.1.15,2013-09-23 12:45:00,
2013-09-23 07:55:00,44.8,42.6,30.15,ESE,102,0.0,0.0,92,0.00,,,0.00,Wunderground v.1.15,2013-09-23 12:55:00,
2013-09-23 08:00:00,45.1,42.9,30.15,ESE,110,0.0,0.0,92,0.00,,,0.00,Wunderground v.1.15,2013-09-23 13:00:00,
2013-09-23 08:05:00,45.5,43.3,30.15,ESE,110,0.0,0.0,92,0.00,,,0.00,Wunderground v.1.15,2013-09-23 13:05:00,
2013-09-23 08:15:00,46.3,44.1,30.15,ESE,110,0.0,0.0,92,0.00,,,0.00,Wunderground v.1.15,2013-09-23 13:15:00,
2013-09-23 08:25:00,47.2,44.7,30.15,ESE,110,0.0,0.0,91,0.00,,,0.00,Wunderground v.1.15,2013-09-23 13:25:00,
2013-09-23 08:30:00,47.6,45.1,30.15,ESE,110,0.0,0.0,91,0.00,,,0.00,Wunderground v.1.15,2013-09-23 13:30:00,
2013-09-23 08:35:00,48.0,45.2,30.15,ESE,110,0.0,0.0,90,0.00,,,0.00,Wunderground v.1.15,2013-09-23 13:35:00,
2013-09-23 08:40:00,48.6,45.8,30.15,ESE,114,0.0,0.0,90,0.00,,,0.00,Wunderground v.1.15,2013-09-23 13:40:00,
2013-09-23 08:45:00,49.1,46.3,30.16,SE,128,0.0,0.0,90,0.00,,,0.00,Wunderground v.1.15,2013-09-23 13:45:00,
2013-09-23 08:50:00,49.7,46.6,30.16,ESE,111,0.0,0.0,89,0.00,,,0.00,Wunderground v.1.15,2013-09-23 13:50:00,
2013-09-23 09:00:00,50.8,47.4,30.16,ESE,118,0.0,0.0,88,0.00,,,0.00,Wunderground v.1.15,2013-09-23 14:00:00,
2013-09-23 09:05:00,51.5,47.8,30.16,East,94,0.0,0.0,87,0.00,,,0.00,Wunderground v.1.15,2013-09-23 14:05:00,
2013-09-23 09:15:00,52.4,48.0,30.16,ESE,111,0.0,0.0,85,0.00,,,0.00,Wunderground v.1.15,2013-09-23 14:15:00,
2013-09-23 09:25:00,53.2,48.5,30.17,South,172,1.0,1.0,84,0.00,,,0.00,Wunderground v.1.15,2013-09-23 14:25:00,
2013-09-23 09:30:00,53.6,48.6,30.17,South,185,1.0,5.0,83,0.00,,,0.00,Wunderground v.1.15,2013-09-23 14:30:00,
2013-09-23 09:35:00,54.1,49.1,30.17,ESE,104,1.0,5.0,83,0.00,,,0.00,Wunderground v.1.15,2013-09-23 14:35:00,
2013-09-23 09:40:00,54.5,49.1,30.17,SSE,160,1.0,2.0,82,0.00,,,0.00,Wunderground v.1.15,2013-09-23 14:40:00,
2013-09-23 09:45:00,55.0,49.3,30.17,SSE,161,1.0,2.0,81,0.00,,,0.00,Wunderground v.1.15,2013-09-23 14:45:00,
2013-09-23 09:50:00,55.4,49.3,30.17,East,92,1.0,1.0,80,0.00,,,0.00,Wunderground v.1.15,2013-09-23 14:50:00,
2013-09-23 09:55:00,55.5,49.1,30.17,South,178,1.0,1.0,79,0.00,,,0.00,Wunderground v.1.15,2013-09-23 14:55:00,
2013-09-23 10:05:00,56.6,49.8,30.17,South,176,0.0,5.0,78,0.00,,,0.00,Wunderground v.1.15,2013-09-23 15:05:00,
2013-09-23 10:15:00,57.3,50.1,30.17,East,94,1.0,1.0,77,0.00,,,0.00,Wunderground v.1.15,2013-09-23 15:15:00,
2013-09-23 10:25:00,58.0,50.1,30.17,South,178,1.0,1.0,75,0.00,,,0.00,Wunderground v.1.15,2013-09-23 15:25:00,
2013-09-23 10:30:00,58.5,50.6,30.17,South,178,0.0,0.0,75,0.00,,,0.00,Wunderground v.1.15,2013-09-23 15:30:00,
2013-09-23 10:40:00,59.0,50.4,30.17,South,178,0.0,0.0,73,0.00,,,0.00,Wunderground v.1.15,2013-09-23 15:40:00,
2013-09-23 10:45:00,59.7,50.7,30.17,South,186,0.0,5.0,72,0.00,,,0.00,Wunderground v.1.15,2013-09-23 15:45:00,
2013-09-23 10:50:00,60.0,50.6,30.17,SSE,159,1.0,1.0,71,0.00,,,0.00,Wunderground v.1.15,2013-09-23 15:50:00,
2013-09-23 10:55:00,60.6,50.4,30.17,South,169,1.0,1.0,69,0.00,,,0.00,Wunderground v.1.15,2013-09-23 15:55:00,
2013-09-23 11:00:00,61.1,50.8,30.16,SE,142,1.0,1.0,69,0.00,,,0.00,Wunderground v.1.15,2013-09-23 16:00:00,
2013-09-23 11:05:00,61.4,50.7,30.17,South,173,1.0,1.0,68,0.00,,,0.00,Wunderground v.1.15,2013-09-23 16:05:00,
2013-09-23 11:15:00,62.5,51.4,30.16,East,88,1.0,3.0,67,0.00,,,0.00,Wunderground v.1.15,2013-09-23 16:15:00,
2013-09-23 11:20:00,63.3,51.7,30.16,SSE,150,1.0,1.0,66,0.00,,,0.00,Wunderground v.1.15,2013-09-23 16:20:00,
2013-09-23 11:25:00,64.1,52.5,30.16,SSE,150,1.0,1.0,66,0.00,,,0.00,Wunderground v.1.15,2013-09-23 16:25:00,
2013-09-23 11:35:00,65.4,52.9,30.15,SSE,160,0.0,0.0,64,0.00,,,0.00,Wunderground v.1.15,2013-09-23 16:35:00,
2013-09-23 11:40:00,66.2,52.3,30.15,SSE,161,0.0,0.0,61,0.00,,,0.00,Wunderground v.1.15,2013-09-23 16:40:00,
2013-09-23 11:45:00,66.8,52.0,30.15,ESE,105,1.0,2.0,59,0.00,,,0.00,Wunderground v.1.15,2013-09-23 16:45:00,
2013-09-23 11:50:00,67.2,52.4,30.15,SSE,165,1.0,1.0,59,0.00,,,0.00,Wunderground v.1.15,2013-09-23 16:50:00,
2013-09-23 11:55:00,68.0,52.7,30.15,SSE,167,1.0,1.0,58,0.00,,,0.00,Wunderground v.1.15,2013-09-23 16:55:00,
2013-09-23 12:00:00,68.7,52.4,30.15,SSE,167,1.0,2.0,56,0.00,,,0.00,Wunderground v.1.15,2013-09-23 17:00:00,
2013-09-23 12:05:00,69.1,52.7,30.15,SE,125,1.0,2.0,56,0.00,,,0.00,Wunderground v.1.15,2013-09-23 17:05:00,
2013-09-23 12:15:00,70.9,52.4,30.14,South,190,0.0,1.0,52,0.00,,,0.00,Wunderground v.1.15,2013-09-23 17:15:00,
2013-09-23 12:20:00,71.5,53.5,30.14,SE,134,1.0,1.0,53,0.00,,,0.00,Wunderground v.1.15,2013-09-23 17:20:00,
2013-09-23 12:25:00,72.3,53.2,30.14,SE,136,0.0,1.0,51,0.00,,,0.00,Wunderground v.1.15,2013-09-23 17:25:00,
2013-09-23 12:30:00,71.7,51.5,30.13,South,175,1.0,1.0,49,0.00,,,0.00,Wunderground v.1.15,2013-09-23 17:30:00,
2013-09-23 12:40:00,72.2,52.5,30.13,SE,145,1.0,2.0,50,0.00,,,0.00,Wunderground v.1.15,2013-09-23 17:40:00,
2013-09-23 12:50:00,71.4,51.8,30.13,SSE,167,1.0,1.0,50,0.00,,,0.00,Wunderground v.1.15,2013-09-23 17:50:00,
2013-09-23 12:55:00,71.9,51.7,30.13,South,175,1.0,1.0,49,0.00,,,0.00,Wunderground v.1.15,2013-09-23 17:55:00,
2013-09-23 13:00:00,72.4,52.7,30.12,South,176,1.0,4.0,50,0.00,,,0.00,Wunderground v.1.15,2013-09-23 18:00:00,
2013-09-23 13:05:00,72.7,54.1,30.12,ESE,105,1.0,4.0,52,0.00,,,0.00,Wunderground v.1.15,2013-09-23 18:05:00,
2013-09-23 13:15:00,72.9,53.2,30.12,ESE,104,1.0,7.0,50,0.00,,,0.00,Wunderground v.1.15,2013-09-23 18:15:00,
2013-09-23 13:20:00,72.7,53.5,30.11,East,96,1.0,5.0,51,0.00,,,0.00,Wunderground v.1.15,2013-09-23 18:20:00,
2013-09-23 13:25:00,73.5,52.6,30.11,East,95,1.0,5.0,48,0.00,,,0.00,Wunderground v.1.15,2013-09-23 18:25:00,
2013-09-23 13:30:00,74.0,52.5,30.11,ESE,119,1.0,1.0,47,0.00,,,0.00,Wunderground v.1.15,2013-09-23 18:30:00,
2013-09-23 13:40:00,74.5,52.9,30.10,SE,132,0.0,1.0,47,0.00,,,0.00,Wunderground v.1.15,2013-09-23 18:40:00,
2013-09-23 13:45:00,74.4,52.9,30.11,ESE,110,0.0,1.0,47,0.00,,,0.00,Wunderground v.1.15,2013-09-23 18:45:00,
2013-09-23 13:50:00,74.3,52.2,30.10,SSE,159,1.0,1.0,46,0.00,,,0.00,Wunderground v.1.15,2013-09-23 18:50:00,
2013-09-23 13:55:00,73.7,52.2,30.10,SE,143,1.0,1.0,47,0.00,,,0.00,Wunderground v.1.15,2013-09-23 18:55:00,
2013-09-23 14:05:00,74.3,52.8,30.10,SE,129,1.0,1.0,47,0.00,,,0.00,Wunderground v.1.15,2013-09-23 19:05:00,
2013-09-23 14:15:00,74.3,52.2,30.10,SSE,166,0.0,1.0,46,0.00,,,0.00,Wunderground v.1.15,2013-09-23 19:15:00,
2013-09-23 14:20:00,75.0,52.8,30.10,SSE,166,0.0,0.0,46,0.00,,,0.00,Wunderground v.1.15,2013-09-23 19:20:00,
2013-09-23 14:25:00,75.8,52.9,30.10,SE,140,0.0,4.0,45,0.00,,,0.00,Wunderground v.1.15,2013-09-23 19:25:00,
2013-09-23 14:30:00,76.1,53.2,30.09,SE,141,0.0,0.0,45,0.00,,,0.00,Wunderground v.1.15,2013-09-23 19:30:00,
2013-09-23 14:35:00,76.4,52.9,30.09,SE,140,1.0,1.0,44,0.00,,,0.00,Wunderground v.1.15,2013-09-23 19:35:00,
2013-09-23 14:40:00,76.2,52.7,30.09,SSE,148,1.0,1.0,44,0.00,,,0.00,Wunderground v.1.15,2013-09-23 19:40:00,
2013-09-23 14:45:00,75.7,52.2,30.09,SSE,164,1.0,4.0,44,0.00,,,0.00,Wunderground v.1.15,2013-09-23 19:45:00,
2013-09-23 14:50:00,74.7,51.3,30.08,East,96,1.0,1.0,44,0.00,,,0.00,Wunderground v.1.15,2013-09-23 19:50:00,
2013-09-23 15:00:00,74.8,51.4,30.08,SSE,165,1.0,1.0,44,0.00,,,0.00,Wunderground v.1.15,2013-09-23 20:00:00,
2013-09-23 15:05:00,74.7,51.3,30.08,SE,129,1.0,1.0,44,0.00,,,0.00,Wunderground v.1.15,2013-09-23 20:05:00,
2013-09-23 15:15:00,74.8,52.6,30.07,East,88,1.0,1.0,46,0.00,,,0.00,Wunderground v.1.15,2013-09-23 20:15:00,
2013-09-23 15:20:00,74.2,52.1,30.07,South,171,1.0,1.0,46,0.00,,,0.00,Wunderground v.1.15,2013-09-23 20:20:00,
2013-09-23 15:25:00,73.8,51.7,30.07,ESE,105,0.0,1.0,46,0.00,,,0.00,Wunderground v.1.15,2013-09-23 20:25:00,
2013-09-23 15:30:00,73.3,51.3,30.07,SSE,159,1.0,4.0,46,0.00,,,0.00,Wunderground v.1.15,2013-09-23 20:30:00,
2013-09-23 15:40:00,72.2,52.0,30.07,South,179,1.0,1.0,49,0.00,,,0.00,Wunderground v.1.15,2013-09-23 20:40:00,
2013-09-23 15:45:00,72.2,50.8,30.07,SSE,167,1.0,1.0,47,0.00,,,0.00,Wunderground v.1.15,2013-09-23 20:45:00,
2013-09-23 15:50:00,72.2,50.8,30.06,South,169,1.0,1.0,47,0.00,,,0.00,Wunderground v.1.15,2013-09-23 20:50:00,
2013-09-23 15:55:00,72.1,51.3,30.06,South,169,0.0,1.0,48,0.00,,,0.00,Wunderground v.1.15,2013-09-23 20:55:00,
2013-09-23 16:00:00,72.0,50.1,30.06,South,169,1.0,1.0,46,0.00,,,0.00,Wunderground v.1.15,2013-09-23 21:00:00,
2013-09-23 16:05:00,71.8,51.0,30.06,South,173,1.0,1.0,48,0.00,,,0.00,Wunderground v.1.15,2013-09-23 21:05:00,
2013-09-23 16:15:00,71.7,52.1,30.06,South,171,1.0,1.0,50,0.00,,,0.00,Wunderground v.1.15,2013-09-23 21:15:00,
2013-09-23 16:20:00,71.7,52.1,30.06,South,178,1.0,7.0,50,0.00,,,0.00,Wunderground v.1.15,2013-09-23 21:20:00,
2013-09-23 16:30:00,71.7,51.5,30.06,South,176,1.0,4.0,49,0.00,,,0.00,Wunderground v.1.15,2013-09-23 21:30:00,
2013-09-23 16:35:00,71.5,51.3,30.06,SE,139,0.0,4.0,49,0.00,,,0.00,Wunderground v.1.15,2013-09-23 21:35:00,
2013-09-23 16:40:00,71.3,51.1,30.06,ESE,111,1.0,4.0,49,0.00,,,0.00,Wunderground v.1.15,2013-09-23 21:40:00,
2013-09-23 16:50:00,71.1,51.5,30.06,SSE,160,0.0,0.0,50,0.00,,,0.00,Wunderground v.1.15,2013-09-23 21:50:00,
2013-09-23 16:55:00,71.0,51.4,30.07,SSE,157,0.0,0.0,50,0.00,,,0.00,Wunderground v.1.15,2013-09-23 21:55:00,
2013-09-23 17:00:00,71.0,52.0,30.07,ESE,102,1.0,1.0,51,0.00,,,0.00,Wunderground v.1.15,2013-09-23 22:00:00,
2013-09-23 17:05:00,70.8,50.7,30.06,SSE,155,1.0,1.0,49,0.00,,,0.00,Wunderground v.1.15,2013-09-23 22:05:00,
2013-09-23 17:15:00,70.6,51.1,30.07,SE,146,1.0,4.0,50,0.00,,,0.00,Wunderground v.1.15,2013-09-23 22:15:00,
2013-09-23 17:20:00,70.5,52.0,30.06,SSE,155,1.0,1.0,52,0.00,,,0.00,Wunderground v.1.15,2013-09-23 22:20:00,
2013-09-23 17:30:00,70.3,50.8,30.06,ESE,116,0.0,2.0,50,0.00,,,0.00,Wunderground v.1.15,2013-09-23 22:30:00,
2013-09-23 17:40:00,70.1,51.1,30.06,SE,130,0.0,0.0,51,0.00,,,0.00,Wunderground v.1.15,2013-09-23 22:40:00,
2013-09-23 17:45:00,70.0,51.6,30.06,SE,130,0.0,0.0,52,0.00,,,0.00,Wunderground v.1.15,2013-09-23 22:45:00,
2013-09-23 17:50:00,69.7,51.8,30.06,SE,137,0.0,0.0,53,0.00,,,0.00,Wunderground v.1.15,2013-09-23 22:50:00,
2013-09-23 18:00:00,69.1,51.8,30.06,SE,139,0.0,0.0,54,0.00,,,0.00,Wunderground v.1.15,2013-09-23 23:00:00,
2013-09-23 18:05:00,68.8,52.0,30.06,SE,139,0.0,0.0,55,0.00,,,0.00,Wunderground v.1.15,2013-09-23 23:05:00,
2013-09-23 18:15:00,68.2,51.9,30.06,SE,139,0.0,0.0,56,0.00,,,0.00,Wunderground v.1.15,2013-09-23 23:15:00,
2013-09-23 18:20:00,67.9,52.1,30.06,SE,138,0.0,0.0,57,0.00,,,0.00,Wunderground v.1.15,2013-09-23 23:20:00,
2013-09-23 18:25:00,67.4,52.1,30.06,SE,139,0.0,0.0,58,0.00,,,0.00,Wunderground v.1.15,2013-09-23 23:25:00,
2013-09-23 18:30:00,66.8,51.5,30.06,SE,138,0.0,0.0,58,0.00,,,0.00,Wunderground v.1.15,2013-09-23 23:30:00,
2013-09-23 18:40:00,65.7,51.4,30.06,SE,139,0.0,0.0,60,0.00,,,0.00,Wunderground v.1.15,2013-09-23 23:40:00,
2013-09-23 18:50:00,64.8,51.9,30.07,SE,138,0.0,0.0,63,0.00,,,0.00,Wunderground v.1.15,2013-09-23 23:50:00,
2013-09-23 18:55:00,64.3,52.3,30.07,SE,138,0.0,0.0,65,0.00,,,0.00,Wunderground v.1.15,2013-09-23 23:55:00,
2013-09-23 19:00:00,63.7,51.3,30.06,SE,138,0.0,0.0,64,0.00,,,0.00,Wunderground v.1.15,2013-09-24 00:00:00,
2013-09-23 19:05:00,63.2,51.2,30.06,SE,138,0.0,0.0,65,0.00,,,0.00,Wunderground v.1.15,2013-09-24 00:05:00,
2013-09-23 19:15:00,61.9,51.6,30.06,SE,138,0.0,0.0,69,0.00,,,0.00,Wunderground v.1.15,2013-09-24 00:15:00,
2013-09-23 19:20:00,61.2,50.9,30.06,SE,138,0.0,0.0,69,0.00,,,0.00,Wunderground v.1.15,2013-09-24 00:20:00,
2013-09-23 19:30:00,60.6,50.8,30.06,SE,138,0.0,0.0,70,0.00,,,0.00,Wunderground v.1.15,2013-09-24 00:30:00,
2013-09-23 19:35:00,60.2,50.4,30.06,SE,138,0.0,0.0,70,0.00,,,0.00,Wunderground v.1.15,2013-09-24 00:35:00,
2013-09-23 19:45:00,59.8,50.0,30.06,SE,138,0.0,0.0,70,0.00,,,0.00,Wunderground v.1.15,2013-09-24 00:45:00,
2013-09-23 19:55:00,59.2,50.2,30.06,SE,138,0.0,0.0,72,0.00,,,0.00,Wunderground v.1.15,2013-09-24 00:55:00,
2013-09-23 20:00:00,59.0,50.0,30.06,SE,138,0.0,0.0,72,0.00,,,0.00,Wunderground v.1.15,2013-09-24 01:00:00,
2013-09-23 20:05:00,58.6,50.0,30.06,SE,138,0.0,0.0,73,0.00,,,0.00,Wunderground v.1.15,2013-09-24 01:05:00,
2013-09-23 20:15:00,58.2,50.0,30.07,SE,138,0.0,0.0,74,0.00,,,0.00,Wunderground v.1.15,2013-09-24 01:15:00,
2013-09-23 20:20:00,57.9,50.0,30.07,SE,138,0.0,0.0,75,0.00,,,0.00,Wunderground v.1.15,2013-09-24 01:20:00,
2013-09-23 20:25:00,57.5,49.6,30.07,SE,138,0.0,0.0,75,0.00,,,0.00,Wunderground v.1.15,2013-09-24 01:25:00,
2013-09-23 20:30:00,57.1,49.6,30.07,SE,138,0.0,0.0,76,0.00,,,0.00,Wunderground v.1.15,2013-09-24 01:30:00,
2013-09-23 20:35:00,56.7,49.6,30.07,SE,138,0.0,0.0,77,0.00,,,0.00,Wunderground v.1.15,2013-09-24 01:35:00,
2013-09-23 20:40:00,56.3,49.5,30.06,SE,138,0.0,0.0,78,0.00,,,0.00,Wunderground v.1.15,2013-09-24 01:40:00,
2013-09-23 20:45:00,56.0,49.2,30.06,SE,138,0.0,0.0,78,0.00,,,0.00,Wunderground v.1.15,2013-09-24 01:45:00,
2013-09-23 20:55:00,55.5,49.1,30.07,SE,138,0.0,0.0,79,0.00,,,0.00,Wunderground v.1.15,2013-09-24 01:55:00,
2013-09-23 21:00:00,55.3,48.9,30.07,SE,138,0.0,0.0,79,0.00,,,0.00,Wunderground v.1.15,2013-09-24 02:00:00,
2013-09-23 21:05:00,55.3,48.9,30.07,SE,138,0.0,0.0,79,0.00,,,0.00,Wunderground v.1.15,2013-09-24 02:05:00,
2013-09-23 21:15:00,55.6,48.8,30.07,SE,138,0.0,0.0,78,0.00,,,0.00,Wunderground v.1.15,2013-09-24 02:15:00,
2013-09-23 21:20:00,55.7,48.9,30.07,SE,138,0.0,0.0,78,0.00,,,0.00,Wunderground v.1.15,2013-09-24 02:20:00,
2013-09-23 21:25:00,55.7,48.9,30.07,SE,138,0.0,0.0,78,0.00,,,0.00,Wunderground v.1.15,2013-09-24 02:25:00,
2013-09-23 21:30:00,55.6,48.8,30.07,SE,138,0.0,0.0,78,0.00,,,0.00,Wunderground v.1.15,2013-09-24 02:30:00,
2013-09-23 21:35:00,55.5,49.1,30.08,SE,138,0.0,0.0,79,0.00,,,0.00,Wunderground v.1.15,2013-09-24 02:35:00,
2013-09-23 21:45:00,55.3,48.6,30.08,SE,138,0.0,0.0,78,0.00,,,0.00,Wunderground v.1.15,2013-09-24 02:45:00,
2013-09-23 21:50:00,55.3,48.6,30.08,SE,138,0.0,0.0,78,0.00,,,0.00,Wunderground v.1.15,2013-09-24 02:50:00,
2013-09-23 22:00:00,55.3,48.9,30.08,SE,138,0.0,0.0,79,0.00,,,0.00,Wunderground v.1.15,2013-09-24 03:00:00,
2013-09-23 22:05:00,55.1,48.7,30.08,SE,138,0.0,0.0,79,0.00,,,0.00,Wunderground v.1.15,2013-09-24 03:05:00,
2013-09-23 22:15:00,54.8,48.7,30.08,SE,138,0.0,0.0,80,0.00,,,0.00,Wunderground v.1.15,2013-09-24 03:15:00,
2013-09-23 22:20:00,54.5,48.8,30.08,SE,138,0.0,0.0,81,0.00,,,0.00,Wunderground v.1.15,2013-09-24 03:20:00,
2013-09-23 22:25:00,54.4,48.7,30.08,SE,138,0.0,0.0,81,0.00,,,0.00,Wunderground v.1.15,2013-09-24 03:25:00,
2013-09-23 22:30:00,54.2,48.5,30.08,SE,138,0.0,0.0,81,0.00,,,0.00,Wunderground v.1.15,2013-09-24 03:30:00,
2013-09-23 22:35:00,54.1,48.7,30.08,SE,138,0.0,0.0,82,0.00,,,0.00,Wunderground v.1.15,2013-09-24 03:35:00,
2013-09-23 22:40:00,54.0,48.6,30.08,SE,138,0.0,0.0,82,0.00,,,0.00,Wunderground v.1.15,2013-09-24 03:40:00,
2013-09-23 22:45:00,53.8,48.4,30.08,SE,138,0.0,0.0,82,0.00,,,0.00,Wunderground v.1.15,2013-09-24 03:45:00,
2013-09-23 22:55:00,53.4,48.4,30.08,SE,138,0.0,0.0,83,0.00,,,0.00,Wunderground v.1.15,2013-09-24 03:55:00,
2013-09-23 23:00:00,53.2,48.2,30.08,SE,138,0.0,0.0,83,0.00,,,0.00,Wunderground v.1.15,2013-09-24 04:00:00,
2013-09-23 23:05:00,53.1,48.4,30.08,SE,138,0.0,0.0,84,0.00,,,0.00,Wunderground v.1.15,2013-09-24 04:05:00,
2013-09-23 23:10:00,53.0,48.3,30.08,SE,138,0.0,0.0,84,0.00,,,0.00,Wunderground v.1.15,2013-09-24 04:10:00,
2013-09-23 23:15:00,53.0,48.3,30.08,SE,138,0.0,0.0,84,0.00,,,0.00,Wunderground v.1.15,2013-09-24 04:15:00,
2013-09-23 23:20:00,52.9,48.5,30.08,SE,138,0.0,0.0,85,0.00,,,0.00,Wunderground v.1.15,2013-09-24 04:20:00,
2013-09-23 23:25:00,52.8,48.4,30.08,SE,138,0.0,0.0,85,0.00,,,0.00,Wunderground v.1.15,2013-09-24 04:25:00,
2013-09-23 23:30:00,52.8,48.4,30.08,SE,138,0.0,1.0,85,0.00,,,0.00,Wunderground v.1.15,2013-09-24 04:30:00,
2013-09-23 23:35:00,52.6,48.2,30.08,SE,138,0.0,1.0,85,0.00,,,0.00,Wunderground v.1.15,2013-09-24 04:35:00,
2013-09-23 23:45:00,52.5,48.4,30.08,SE,138,0.0,0.0,86,0.00,,,0.00,Wunderground v.1.15,2013-09-24 04:45:00,
2013-09-23 23:55:00,52.2,48.1,30.08,SE,138,0.0,0.0,86,0.00,,,0.00,Wunderground v.1.15,2013-09-24 04:55:00,